Spokane Fairchild, WA

4:24 PM PDT on March 27, 2017 (GMT -0700)
Fairchild Air Force Base

Weather History for KSKA - May, 2013

Change the Weather History Date:

Thursday, May 23, 2013

  Actual Average Record
Temperature  
Mean Temperature 44 °F -  
Max Temperature 57 °F 64 °F 89 °F (2001)
Min Temperature 32 °F 43 °F 32 °F (2013)
Degree Days  
Heating Degree Days 21    
Moisture  
Dew Point 35 °F    
Average Humidity 88    
Maximum Humidity 100    
Minimum Humidity 43    
Precipitation  
Precipitation 0.00 in - - ()
Sea Level Pressure  
Sea Level Pressure 30.00 in    
Wind  
Wind Speed 5 mph (NNE)    
Max Wind Speed 9 mph    
Max Gust Speed -    
Visibility 4 miles    
Events Fog    
Averages and records for this station are not official NWS values.
T = Trace of Precipitation, MM = Missing Value Source: NWS Daily Summary

Daily Weather History Graph

Daily Weather History Graph

Search for Another Location

Airport or City:

Trip Planner

Search our weather history database for the weather conditions in past years. The results will help you decide how hot, cold, wet, or windy it might be!

Date:

Astronomy

May. 23, 2013 Rise Set
Actual Time 5:03 AM PDT 8:31 PM PDT
Civil Twilight 4:25 AM PDT 9:09 PM PDT
Nautical Twilight 3:35 AM PDT 10:00 PM PDT
Astronomical Twilight 2:29 AM PDT 11:07 PM PDT
Moon 7:04 PM PDT (5/23) 3:59 AM PDT (5/23)
Length of Visible Light 16h 43m
Length of Day
15h 27m
Waxing Gibbous, 97% of the Moon is Illuminated
May 23
Waxing Gibbous
May 24
Full
May 31
Last Quarter
Jun 8
New
Jun 16
First Quarter

Hourly Weather History & Observations

Time (PDT) Temp. Windchill Dew Point Humidity Pressure Visibility Wind Dir Wind Speed Gust Speed Precip Events Conditions
12:58 AM 34.3 °F - 34.2 °F 99% 30.04 in 10.0 mi SSW 2.3 mph - N/A   Clear
1:58 AM 34.9 °F 30.8 °F 34.7 °F 99% 30.04 in 10.0 mi ENE 4.6 mph - N/A   Clear
2:40 AM 33.8 °F - 33.8 °F 100% 29.98 in 9.0 mi Calm Calm - N/A   Clear
2:49 AM 33.8 °F - 33.8 °F 100% 29.99 in 2.5 mi NE 2.3 mph - N/A   Clear
2:50 AM 33.8 °F 30.8 °F 33.8 °F 100% 29.99 in 1.8 mi NE 3.5 mph - N/A   Clear
2:51 AM 33.8 °F 30.8 °F 33.8 °F 100% 29.99 in 1.5 mi NE 3.5 mph - N/A   Clear
2:52 AM 33.8 °F 30.8 °F 33.8 °F 100% 29.99 in 1.2 mi NE 3.5 mph - N/A   Clear
2:53 AM 33.8 °F 30.8 °F 33.8 °F 100% 29.99 in 1.0 mi NE 3.5 mph - N/A   Clear
2:54 AM 33.8 °F 30.8 °F 33.8 °F 100% 29.98 in 1.0 mi NE 3.5 mph - N/A   Clear
2:55 AM 33.8 °F 30.8 °F 33.8 °F 100% 29.98 in 0.8 mi NNE 3.5 mph - N/A   Clear
2:58 AM 34.5 °F 31.6 °F 34.3 °F 99% 30.03 in 0.8 mi NE 3.5 mph - 0.00 in   Clear
3:00 AM 35.6 °F 32.8 °F 33.8 °F 93% 29.98 in 0.8 mi NNE 3.5 mph - N/A   Clear
3:03 AM 35.6 °F 31.7 °F 33.8 °F 93% 29.98 in 0.8 mi NNE 4.6 mph - N/A   Clear
3:04 AM 35.6 °F 31.7 °F 33.8 °F 93% 29.98 in 1.0 mi NNE 4.6 mph - N/A   Clear
3:06 AM 35.6 °F 31.7 °F 33.8 °F 93% 29.98 in 1.0 mi NNE 4.6 mph - N/A   Clear
3:07 AM 35.6 °F 31.7 °F 33.8 °F 93% 29.98 in 1.2 mi NNE 4.6 mph - N/A   Clear
3:08 AM 35.6 °F 31.7 °F 33.8 °F 93% 29.98 in 1.5 mi NNE 4.6 mph - N/A   Clear
3:09 AM 35.6 °F 31.7 °F 33.8 °F 93% 29.98 in 1.8 mi NNE 4.6 mph - N/A   Clear
3:10 AM 35.6 °F 31.7 °F 33.8 °F 93% 29.98 in 2.0 mi NNE 4.6 mph - N/A   Clear
3:11 AM 35.6 °F 31.7 °F 33.8 °F 93% 29.98 in 3.0 mi NNE 4.6 mph - N/A   Clear
3:37 AM 33.8 °F 28.6 °F 33.8 °F 100% 29.99 in 6.0 mi NE 5.8 mph - N/A   Partly Cloudy
3:39 AM 33.8 °F 28.6 °F 32.0 °F 93% 29.99 in 2.5 mi NE 5.8 mph - N/A   Partly Cloudy
3:40 AM 32.0 °F 26.4 °F 32.0 °F 100% 29.99 in 2.0 mi NE 5.8 mph - N/A   Partly Cloudy
3:41 AM 32.0 °F 26.4 °F 32.0 °F 100% 29.99 in 1.5 mi NE 5.8 mph - N/A   Scattered Clouds
3:42 AM 32.0 °F 26.4 °F 32.0 °F 100% 29.99 in 1.5 mi NE 5.8 mph - N/A   Scattered Clouds
3:43 AM 32.0 °F 26.4 °F 32.0 °F 100% 29.99 in 1.2 mi NE 5.8 mph - N/A   Scattered Clouds
3:44 AM 32.0 °F 26.4 °F 32.0 °F 100% 29.99 in 1.2 mi NE 5.8 mph - N/A   Scattered Clouds
3:45 AM 32.0 °F 27.5 °F 32.0 °F 100% 29.99 in 1.0 mi NE 4.6 mph - N/A   Mist
3:52 AM 32.0 °F 26.4 °F 32.0 °F 100% 29.99 in 1.2 mi NNE 5.8 mph - N/A   Mostly Cloudy
3:56 AM 33.8 °F 29.6 °F 32.0 °F 93% 29.99 in 1.0 mi North 4.6 mph - N/A   Mist
3:58 AM 33.6 °F 28.4 °F 33.4 °F 99% 30.04 in 1.0 mi North 5.8 mph - N/A   Mist
4:00 AM 33.8 °F 28.6 °F 32.0 °F 93% 29.99 in 0.8 mi North 5.8 mph - N/A   Mist
4:03 AM 32.0 °F 27.5 °F 32.0 °F 100% 29.99 in 0.5 mi North 4.6 mph - N/A Fog Fog
4:04 AM 32.0 °F 27.5 °F 32.0 °F 100% 29.99 in 0.5 mi North 4.6 mph - N/A Fog Fog
4:05 AM 32.0 °F 26.4 °F 32.0 °F 100% 29.99 in 0.5 mi North 5.8 mph - N/A Fog Fog
4:12 AM 33.8 °F 27.7 °F 33.8 °F 100% 29.99 in 0.2 mi NNE 6.9 mph - N/A Fog Fog
4:13 AM 33.8 °F 27.0 °F 33.8 °F 100% 29.99 in 0.2 mi NNE 8.1 mph - N/A Fog Fog
4:39 AM 35.6 °F 30.7 °F 35.6 °F 100% 29.98 in 0.2 mi NNE 5.8 mph - N/A Fog Fog
4:55 AM 35.6 °F 31.7 °F 35.6 °F 100% 29.99 in 0.2 mi North 4.6 mph - N/A Fog Fog
4:58 AM 36.0 °F 32.1 °F 35.8 °F 99% 30.03 in 0.2 mi North 4.6 mph - 0.00 in Fog Fog
5:23 AM 35.6 °F 31.7 °F 35.6 °F 100% 29.99 in 0.2 mi NNW 4.6 mph - N/A Fog Fog
5:37 AM 35.6 °F 31.7 °F 33.8 °F 93% 30.00 in 0.2 mi NNW 4.6 mph - N/A Fog Fog
5:58 AM 35.1 °F 31.0 °F 34.7 °F 99% 30.04 in 0.2 mi North 4.6 mph - 0.00 in Fog Fog
6:10 AM 35.6 °F 31.7 °F 35.6 °F 100% 30.00 in 0.2 mi NNE 4.6 mph - N/A Fog Fog
6:11 AM 35.6 °F 31.7 °F 35.6 °F 100% 30.00 in 0.2 mi NNE 4.6 mph - N/A Fog Fog
6:17 AM 35.6 °F 30.7 °F 35.6 °F 100% 30.00 in 0.2 mi NE 5.8 mph - N/A Fog Fog
6:18 AM 35.6 °F 31.7 °F 35.6 °F 100% 30.00 in 0.2 mi NE 4.6 mph - N/A Fog Fog
6:31 AM 35.6 °F 28.6 °F 35.6 °F 100% 30.00 in 0.2 mi NE 9.2 mph - N/A Fog Fog
6:33 AM 35.6 °F 29.2 °F 35.6 °F 100% 30.00 in 0.5 mi NE 8.1 mph - N/A Fog Fog
6:37 AM 35.6 °F 29.2 °F 35.6 °F 100% 30.00 in 0.5 mi NE 8.1 mph - N/A Fog Fog
6:39 AM 35.6 °F 29.2 °F 35.6 °F 100% 30.00 in 0.8 mi ENE 8.1 mph - N/A   Mist
6:40 AM 35.6 °F 29.2 °F 35.6 °F 100% 30.00 in 0.8 mi NE 8.1 mph - N/A   Mist
6:47 AM 35.6 °F 30.7 °F 35.6 °F 100% 30.00 in 0.5 mi NE 5.8 mph - N/A Fog Fog
6:52 AM 35.6 °F 29.9 °F 35.6 °F 100% 30.00 in 0.5 mi ENE 6.9 mph - N/A Fog Fog
6:55 AM 37.4 °F 30.8 °F 35.6 °F 93% 30.00 in 0.5 mi ENE 9.2 mph - N/A Fog Fog
6:56 AM 37.4 °F 31.4 °F 35.6 °F 93% 30.00 in 0.8 mi NE 8.1 mph - N/A   Mist
6:58 AM 36.7 °F 30.5 °F 36.5 °F 99% 30.04 in 0.8 mi ENE 8.1 mph - N/A   Mist
6:59 AM 37.4 °F 30.8 °F 35.6 °F 93% 30.00 in 1.0 mi ENE 9.2 mph - N/A   Mist
7:00 AM 37.4 °F 31.4 °F 35.6 °F 93% 30.00 in 1.2 mi ENE 8.1 mph - N/A   Overcast
7:01 AM 37.4 °F 31.4 °F 35.6 °F 93% 30.00 in 1.5 mi ENE 8.1 mph - N/A   Overcast
7:02 AM 37.4 °F 31.4 °F 35.6 °F 93% 30.00 in 2.5 mi ENE 8.1 mph - N/A   Overcast
7:03 AM 37.4 °F 31.4 °F 35.6 °F 93% 30.00 in 3.0 mi ENE 8.1 mph - N/A   Overcast
7:27 AM 37.4 °F 32.1 °F 37.4 °F 100% 30.01 in 9.0 mi ENE 6.9 mph - N/A   Overcast
7:58 AM 38.1 °F 34.6 °F 37.8 °F 99% 30.05 in 10.0 mi NE 4.6 mph - N/A   Overcast
8:10 AM 39.2 °F 37.0 °F 39.2 °F 100% 30.00 in 10.0 mi NNE 3.5 mph - N/A   Overcast
8:21 AM 39.2 °F 35.9 °F 39.2 °F 100% 30.00 in 10.0 mi NNE 4.6 mph - N/A   Overcast
8:35 AM 41.0 °F 37.1 °F 39.2 °F 93% 30.00 in 10.0 mi NE 5.8 mph - N/A   Overcast
8:49 AM 41.0 °F 37.1 °F 39.2 °F 93% 30.00 in 10.0 mi NE 5.8 mph - N/A   Overcast
8:58 AM 42.1 °F 40.2 °F 40.3 °F 93% 30.05 in 10.0 mi Variable 3.5 mph - N/A   Mostly Cloudy
9:01 AM 42.8 °F 39.3 °F 41.0 °F 93% 30.00 in 10.0 mi NNE 5.8 mph - N/A   Mostly Cloudy
9:02 AM 42.8 °F 41.1 °F 41.0 °F 93% 30.00 in 10.0 mi Variable 3.5 mph - N/A   Mostly Cloudy
9:10 AM 42.8 °F 41.1 °F 41.0 °F 93% 30.00 in 10.0 mi Variable 3.5 mph - N/A   Mostly Cloudy
9:12 AM 44.6 °F 40.2 °F 41.0 °F 87% 30.00 in 10.0 mi NNE 8.1 mph - N/A   Mostly Cloudy
9:58 AM 47.3 °F - 39.6 °F 74% 30.03 in 10.0 mi Variable 5.8 mph - N/A   Partly Cloudy
10:29 AM 50.0 °F - 37.4 °F 62% 29.99 in 10.0 mi Variable 4.6 mph - N/A   Mostly Cloudy
10:34 AM 48.2 °F - 37.4 °F 66% 29.99 in 10.0 mi Variable 4.6 mph - N/A   Scattered Clouds
10:35 AM 48.2 °F - 37.4 °F 66% 29.99 in 10.0 mi Variable 5.8 mph - N/A   Mostly Cloudy
10:39 AM 50.0 °F - 37.4 °F 62% 29.99 in 10.0 mi Variable 3.5 mph - N/A   Scattered Clouds
10:58 AM 50.9 °F - 35.6 °F 56% 30.03 in 10.0 mi Variable 6.9 mph - N/A   Mostly Cloudy
11:58 AM 52.0 °F - 34.5 °F 51% 30.02 in 10.0 mi Variable 3.5 mph - N/A   Mostly Cloudy
12:58 PM 52.7 °F - 33.4 °F 48% 30.02 in 10.0 mi SSE 4.6 mph - N/A   Overcast
1:55 PM 53.6 °F - 33.8 °F 47% 29.98 in 10.0 mi WNW 3.5 mph - N/A   Light Drizzle
1:58 PM 53.1 °F - 34.3 °F 49% 30.02 in 10.0 mi Variable 2.3 mph - 0.00 in   Light Drizzle
2:02 PM 53.6 °F - 33.8 °F 47% 29.98 in 10.0 mi Calm Calm - N/A   Overcast
2:58 PM 54.5 °F - 34.5 °F 47% 30.02 in 10.0 mi Variable 5.8 mph - 0.00 in   Overcast
3:58 PM 53.8 °F - 34.9 °F 49% 30.02 in 10.0 mi Variable 2.3 mph - N/A   Mostly Cloudy
4:58 PM 55.4 °F - 34.9 °F 46% 30.01 in 10.0 mi West 4.6 mph - N/A   Clear
5:58 PM 56.1 °F - 33.8 °F 43% 30.00 in 10.0 mi Variable 5.8 mph - N/A   Partly Cloudy
6:58 PM 55.2 °F - 33.6 °F 44% 29.99 in 10.0 mi West 4.6 mph - N/A   Clear
7:58 PM 53.4 °F - 36.7 °F 53% 29.97 in 10.0 mi NW 3.5 mph - N/A   Clear
8:58 PM 48.7 °F - 34.7 °F 58% 29.98 in 10.0 mi WNW 4.6 mph - N/A   Clear
9:58 PM 45.3 °F - 36.0 °F 70% 29.99 in 10.0 mi Variable 1.2 mph - N/A   Clear
10:52 PM 42.8 °F 40.1 °F 35.6 °F 76% 29.96 in 10.0 mi SW 4.6 mph - N/A   Clear
10:58 PM 41.7 °F 38.8 °F 36.0 °F 80% 29.99 in 10.0 mi WSW 4.6 mph - 0.00 in   Clear
11:03 PM 41.0 °F 37.1 °F 35.6 °F 81% 29.96 in 10.0 mi WSW 5.8 mph - N/A   Clear
11:58 PM 40.1 °F 36.9 °F 34.5 °F 80% 29.97 in 10.0 mi West 4.6 mph - 0.00 in   Clear